Location: L�gaud
(45.7115°N, 1.7775°E)
Time: 06:14:18
(UTC+00:00)

USA 306 - Pass Details

Date: 03 March 2021
Orbit: 564 x 577 km, 54.0° (Epoch: 10 April)

Event Time Altitude Azimuth Distance (km) Brightness Sun altitude
Rises 19:59:05 0° 297° (WNW) 2,783 7.8 -24.4°
Reaches altitude 10° 20:01:35 10° 309° (NW) 1,881 6.4 -24.8°
Enters shadow 20:05:05 29° 3° (N) 1,071 4.3 -25.4°
